Timeline UpdatesTrip UpdatesNews PostsPvt PostsTravel TipsAdmin PostsConv PostsFollowed PostsChat RequestsBlog PostsPNR Posts

Disclaimer
Search
 
 
Wed Apr 16, 2014 09:50:13 ISTHomeTrainsΣChainsAtlasPNRForumGalleryNewsFAQTripsMembersLoginFeedback
No Recent News for this Train
Other Trains in the News **new
Latest...
Train Cancelled on 7th Oct 2013
Tue Oct 08, 2013 (12:02PM)
⇐ Return Journey: Train# 58527

58528/Visakhapatnam-Raipur Passenger (UnReserved)

Sep 11 2013 (11:05PM)
Change Departure Station:
Change Arrival Station:
Post a Train Travel TipPost a Train Travel Tip **new
Post a Comment/Question/Picture/VideoPost a Comment/Question/Picture/Video
Pantry/Catering
✕ NO Pantry Car
✕ NO Catering
RSA - Rake Sharing
58525/58526 Passenger
Rake/Coach Composition
Loco
News    PNR    Forum    Time-Table    Availability    Fare Chart    Map    Arr/Dep History    Trips    Gallery    ΣChains    X/O    Timeline    
Travel Time: 16h 50m    55 halts    Distance: 529 km    Avg Speed: 31 km/hr
Type: Passenger
Zone: ECoR/East Coast
Departs @ 02:40 (Avg 1m late)
Platform# 4
SMTWTFS
Visakhapatnam Junction/VSKP 
Arrives @ 19:30 (Avg 23m late)
Platform# ???
SMTWTFS
Raipur Junction/R 

55 halts. 56 intermediate Stations between Visakhapatnam Junction and Raipur Junction

Show ALL intermediate Stations  Show Old Time-Table

#CodeStation NameX/OArrivesAvgDepartsAvgHaltPFDay#KmSpeedElevZoneAddress
1VSKP»Visakhapatnam Junction (8)»  -02:40+1410.02511mECoRVishakhapatnam 530001, Andhra Pradesh
2MIPMMarripalem (2)  02:51+202:52+21m--14.53417mECoRVishakhapatnam, Andhra Pradesh
3SCMSimhachalam (2)  02:58+703:00+72m--17.92927mECoRVisakhapatnam, Andhra Pradesh
4SCMNSimhachalam North (5)  03:03+603:05+82m--19.46720mECoRVishakhapatnam, Andhra Pradesh
5PDTPendurti (7)X  03:12+1303:14+162m--117.26627mECoRVisakhapatnam, Andhra Pradesh
6KTVKottavalasa Junction (5)  03:22+1903:24+212m--126.04858mECoRVizianagaram District, Andhra Pradesh
7KPLKantakapalle  03:34+2003:36+222m--134.06979mECoRKantakapalle, Andhra Pradesh
8ALMAlamandaX  03:44+2303:46+262m--143.25451mECoRAlamanda Road, Andhra Pradesh
9KUKKorukondaX  03:54+2503:56+282m--150.33438mECoRKorukonda, Andhra Pradesh
10VZMVizianagaram Junction (5)X  04:15+1404:30+2115m--161.07163mECoRVizianagaram ph.no 08922-225510, Andhra Pradesh
11GTLMGotlam  04:40+3304:42+332m--172.94872mECoRVizianagaram Rd, Andhra Pradesh
12GRBLGarudubilli  04:48+3404:50+342m--177.73474mECoRVizianagaram District, Andhra Pradesh
13GPIGajapatinagaram  05:00+3305:02+362m--183.46072mECoRGajapatinagaram, Andhra Pradesh
14KMXKomatipalli  05:12+3505:14+352m--193.36695mECoRCoastal Andhra Region, Andhra Pradesh
15DNVDonkinavalasaX  05:23+3505:25+382m--1103.248113mECoRVizianagaram, Andhra Pradesh
16VBLBobbili Junction (2)X  05:40+3505:45+355m11115.368137mECoRBobbili, Andhra Pradesh
17SNMSitanagaramX  05:55+3505:57+372m--1126.683103mECoRVizianagaram, Andhra Pradesh
18NSXNarsipuram Halt  06:03+3406:04+341m--1134.928132mECoRCoastal Andhra Region, Andhra Pradesh
19PVPParvatipuram (3)  06:13+3206:18+505m--1139.133122mECoRParvatipuram, Andhra Pradesh
20PVPTParvatipuram TownX  06:21+4906:23+492m--1140.843121mECoRParvatipuram, Andhra Pradesh
21GMDAGumada  06:40+4806:42+482m--1152.967135mECoRCoastal Andhra Region, Andhra Pradesh
22KNRTKuneruX  06:50+4806:52+482m--1161.869139mECoRCoastal Andhra Region, Andhra Pradesh
23JMPTJimidipeta  07:00+4907:02+492m--1170.954188mECoRRayagada, Odisha
24LDXLaddaXO  07:10+4907:12+562m--1178.25183mECoRRayagada, Odisha
25RGDARayagada (3)XO  08:40+608:55+915m--1186.137229mECoRRayagada ph.no 06856-222407, Odisha
26SPRDSingapuram Road (2)  09:10+1009:12+112m--1195.370248mECoRJaykaypur, Odisha
27THVTherubali  09:20+1809:22+192m--1204.771270mECoRRayagada, Odisha
28BMCKBissamcuttack  09:38+2709:40+502m--1223.825421mECoRState Highway 5, Odisha
29SNRLSansartali  09:53+1909:55+192m--1229.218392mECoRState Highway 5, Odisha
30MNGDMuniguda  10:33+1710:38+215m--1240.779335mECoRMuniguda, Odisha
31DKLUDoikallu  10:48+2510:50+382m--1253.971369mECoRState Highway 6, Odisha
32AMBAmbodalaX  11:00+4011:05+565m--1265.782374mECoRState Highway 6, Odisha
33LJRLanjigarh Road (1)  11:15+5811:17+1:002m11279.368308mECoRState Highway 6, Odisha
34NRLRNorla Road  11:27+1:0111:32+1:055m--1290.750247mECoRKalahandi, Odisha
35RPRDRupra RoadX  11:40+1:0511:45+1:055m--1297.357233mECoRKalahandi, Odisha
36KDLRKandel RoadO  11:53+1:0511:55+1:082m--1304.952211mECoRUtkela, Odisha
37KSNGKesinga (1)X  12:05+5112:10+555m11313.513183mECoRKesinga, Odisha
38TIGTitlagarh Junction  13:15+2313:25+2710m--1327.545212mECoRTitlagarh, Odisha
39RNBTRahenbata  13:35+3913:37+412m--1335.066223mECoRNational Highway 217, Odisha
40MRBLMuribahal  13:46+4313:48+472m--1344.975272mECoRNational Highway 217, Odisha
41KBJKantabanji  14:00+4614:10+4910m--1359.969283mECoRBolangir, Odisha
42TRKRTurekala Road  14:22+5314:24+582m--1373.870337mECoRState Highway 42, Odisha
43HSKHarishanker Road  14:32+1:0014:37+595m--1383.186335mECoRNational Highway 217, Odisha
44LKNALakhnaX  14:48+1:0214:50+1:102m--1398.982335mECoRNuapada District, Odisha
45NPDNawapara Road  15:00+1:1015:02+1:112m--1412.670344mECoRNuapada District, Odisha
46KRARKhariar Road  15:12+1:1115:17+1:135m--1424.269317mECoRJonk, Odisha
47KMKKomakhanX  15:26+1:1115:28+1:112m--1434.664333mECoRNational Highway 217, Chhattisgarh
48BGBRBagbahra  15:38+4315:43+435m--1445.265358mECoRBagbahra, Chhattisgarh
49BMKJBhimkhoj  15:53+1:0915:55+1:102m--1456.169324mECoRNational Highway 217, Chhattisgarh
50ARNArandO  16:05+1:0716:07+1:072m--1467.621310mECoRNational Highway 217, Chhattisgarh
51MSMDMahasamundX  16:30+3516:35+345m--1475.826301mECoRMahasamund, Chhattisgarh
52BLSNBelsondaO  16:55+4816:57+482m--1484.469281mECoRMahasamund, Chhattisgarh
53ANMDArang MahanadiXO  17:05+1917:07+172m--1493.64278mECoRArang, Chhattisgarh
54LAELakholi  18:45+518:47+82m--1500.668301mECoRReewa, Chhattisgarh
55MNDHMandir Hasaud  18:58+819:00+82m--1513.057314mECoRNational Highway 6, Chhattisgarh
56RVHRaipur R-V Block Hut  19:15+519:17+42m--1527.210285mSECRRaipur, Chhattisgarh
57R•Raipur Junction (6)•  19:30+23---1529.4-297mSECRRaipur, Chhattisgarh
Scroll to Top
Scroll to Bottom